Жезказган

Казахстан     47°48′15″N   67°42′52″E
темп.,
°C
ветер,
м/с
пор.,
м/с
влажн.,
%
обл.,
%
осадки,
мм/ч
давл.,
гПа
погр.,
м
6 мая, чт
чт623:00+23ссв4723100 0.0 1004113
02:00+20з013198 0.0 100411
05:00+20зсз3427100 0.0 100556
08:00+22сз5827100 0.0 1006238
11:00+23зюз3530100 0.0 1008498
14:00+27сз4523100 0.0 10083106
17:00+24сз6735100 0.0 1009540
20:00+20ссз5846100 0.0 1012238
7 мая, пт
пт723:00+18с5950100 0.0 1013271
02:00+16с4745100 0.0 1014154
05:00+15с464197 0.0 1016138
08:00+17св563299 0.0 1017431
11:00+22ссв332646 0.0 10171224
14:00+24ссв342526 0.0 10161902
17:00+24с3327100 0.0 10161911
20:00+21св4434100 0.0 101655
8 мая, сб
сб823:00+18всв61247100 0.0 1016296
02:00+17всв4849100 0.0 1015207
05:00+16ссв465598 0.1 1015140
08:00+18в466122 0.1 1015231
11:00+25юв67348 0.1 10132200
14:00+28юз992615 0.0 10103356
17:00+27юз79245 0.0 10103067
20:00+21з593177 0.0 1011183
9 мая, вс
вс923:00+19з3439100 0.0 101164
02:00+18зюз2242100 0.0 101014
05:00+16зюз81048100 0.1 1011695
08:00+16ю81152100 0.1 1011956
11:00+20з675126 0.6 10101484
14:00+22зюз8836100 0.4 10092567
17:00+19зюз8937100 0.6 10091980
20:00+16з711480 0.0 10101330
10 мая, пн
пн1023:00+13з796926 0.0 1011723
02:00+13зсз7117495 0.0 1010650
05:00+12з71372100 0.0 1011890
08:00+15зсз8105799 0.0 1011860
11:00+19зсз894625 0.0 10101510
14:00+18ссз10105653 0.1 10111309
17:00+16ссз896560 0.1 1012996
20:00+15ссз697162 0.1 1014481